Location: Moscow
(38.8570°N, 84.2291°W)
Time: 16:19:25
(UTC+00:00)

Cosmos 2278 Rocket - Pass Details

Date: 15 November 2025
Orbit: 841 x 843 km, 71.0° (Epoch: 06 December)

Event Time Altitude Azimuth Distance (km) Brightness Sun altitude
Rises 23:21:40 0° 196° (SSW) 3,381 5.8 -11.6°
Reaches altitude 10° 23:24:06 10° 195° (SSW) 2,450 5.0 -12.1°
Maximum altitude 23:29:42 77° 111° (ESE) 866 2.1 -13.1°
Drops below altitude 10° 23:35:22 10° 26° (NNE) 2,465 4.3 -14.2°
Enters shadow 23:36:33 - 25° (NNE) 2,921 4.6 -14.4°
